Location: Frizzleburg
(41.0764°N, 80.4548°W)
Time: 04:41:09
(UTC+00:00)

OAO 2 Rocket - Pass Details

Date: 17 November 2019
Orbit: 676 x 746 km, 35.0° (Epoch: 08 December)

Event Time Altitude Azimuth Distance (km) Brightness Sun altitude
Exits shadow 10:17:26 34° 223° (SW) 1,171 4.1 -21.4°
Maximum altitude 10:18:46 40° 187° (S) 1,037 4.1 -21.2°
Drops below altitude 10° 10:23:29 10° 118° (ESE) 2,158 6.9 -20.3°
Sets 10:25:59 0° 111° (ESE) 3,063 8.1 -19.9°
